Location: Cedar Brake
(32.2526°N, 97.8459°W)
Time: 20:55:07
(UTC+00:00)

Cosmos 2333 Rocket - Pass Details

Date: 22 April 2026
Orbit: 841 x 861 km, 70.8° (Epoch: 21 May)

Event Time Altitude Azimuth Distance (km) Brightness Sun altitude
Rises 09:21:35 0° 334° (NNW) 3,408 5.5 -29.5°
Reaches altitude 10° 09:24:03 10° 331° (NNW) 2,472 4.7 -29.1°
Enters shadow 09:26:40 28° 322° (NW) 1,553 3.5 -28.6°
